When you browse on this site, cookies collect data to enhance your experience and personalize the content and advertising you see.
Visit our Privacy Policy to learn more. By continuing to use the site, you agree to this use of cookies and data.
  • In Hungary
  • List of Countries
  • For 7 days
  • Water Temperature
  • Weather Map
  • News
  • Weather Widgets
  • user-avatar
    Login

    Hourly Weather Hreten

    Today, 25 January, Saturday

    Time Temperature Precipitation Wind Pressure Humidity
    00:00 -1°C° 0 mm 5 mps 729 mmHg 91%
    01:00 -1°C° 0 mm 5 mps 729 mmHg 91%
    02:00 -1°C° 0 mm 4 mps 729 mmHg 91%
    03:00 -1°C° 0 mm 4 mps 729 mmHg 91%
    04:00 -1°C° 0 mm 4 mps 729 mmHg 91%
    05:00 -1°C° 0 mm 4 mps 728 mmHg 91%
    06:00 -1°C° 0 mm 4 mps 728 mmHg 89%
    07:00 -1°C° 0 mm 4 mps 728 mmHg 86%
    08:00 -1°C° 0 mm 5 mps 727 mmHg 84%
    09:00 -2°C° 0.4 mm 6 mps 727 mmHg 85%
    10:00 -2°C° 0.4 mm 7 mps 727 mmHg 85%
    11:00 -2°C° 0.4 mm 8 mps 727 mmHg 86%
    12:00 -3°C° 0.1 mm 7 mps 728 mmHg 81%
    13:00 -3°C° 0.1 mm 7 mps 728 mmHg 75%
    14:00 -3°C° 0.1 mm 7 mps 728 mmHg 69%
    15:00 -3°C° 0 mm 6 mps 729 mmHg 72%
    16:00 -4°C° 0 mm 6 mps 729 mmHg 74%
    17:00 -4°C° 0 mm 6 mps 730 mmHg 77%
    18:00 -5°C° 0.1 mm 6 mps 730 mmHg 79%
    19:00 -6°C° 0.1 mm 7 mps 731 mmHg 82%
    20:00 -6°C° 0.1 mm 7 mps 731 mmHg 84%
    21:00 -5°C° 0.1 mm 6 mps 732 mmHg 82%
    22:00 -5°C° 0.1 mm 6 mps 733 mmHg 80%
    23:00 -5°C° 0.1 mm 6 mps 734 mmHg 78%

    Tomorrow, 26 January, Sunday

    Time Temperature Precipitation Wind Pressure Humidity
    00:00 -5°C° 0 mm 5 mps 735 mmHg 78%
    01:00 -6°C° 0 mm 5 mps 736 mmHg 79%
    02:00 -5°C° 0 mm 4 mps 736 mmHg 80%
    03:00 -5°C° 0 mm 4 mps 737 mmHg 81%
    04:00 -5°C° 0 mm 4 mps 737 mmHg 82%
    05:00 -5°C° 0 mm 3 mps 738 mmHg 83%
    06:00 -5°C° 0 mm 3 mps 738 mmHg 84%
    07:00 -5°C° 0 mm 3 mps 738 mmHg 85%
    08:00 -5°C° 0 mm 3 mps 738 mmHg 85%
    09:00 -4°C° 0 mm 3 mps 738 mmHg 84%
    10:00 -4°C° 0 mm 4 mps 738 mmHg 83%
    11:00 -3°C° 0 mm 4 mps 737 mmHg 82%
    12:00 -4°C° 0.3 mm 5 mps 737 mmHg 85%
    13:00 -4°C° 0.3 mm 5 mps 736 mmHg 88%
    14:00 -3°C° 0.3 mm 6 mps 736 mmHg 92%
    15:00 -3°C° 0.5 mm 6 mps 735 mmHg 93%
    16:00 -2°C° 0.5 mm 6 mps 735 mmHg 95%
    17:00 -1°C° 0.5 mm 6 mps 734 mmHg 96%
    18:00 -1°C° 0 mm 6 mps 734 mmHg 94%
    19:00 +1°C° 0 mm 6 mps 734 mmHg 92%
    20:00 +1°C° 0 mm 6 mps 734 mmHg 90%
    21:00 +1°C° 0.1 mm 5 mps 735 mmHg 90%
    22:00 +1°C° 0.1 mm 5 mps 735 mmHg 91%
    23:00 +1°C° 0.1 mm 5 mps 735 mmHg 91%

    Day after tomorrow, 27 January, Monday

    Time Temperature Precipitation Wind Pressure Humidity
    00:00 +1°C° 0.1 mm 5 mps 735 mmHg 92%
    01:00 +1°C° 0.1 mm 5 mps 735 mmHg 93%
    02:00 +1°C° 0.1 mm 4 mps 736 mmHg 93%
    03:00 +1°C° 0.1 mm 4 mps 736 mmHg 94%
    04:00 +1°C° 0.1 mm 4 mps 736 mmHg 95%
    05:00 +1°C° 0.1 mm 3 mps 736 mmHg 95%
    06:00 +1°C° 0.1 mm 3 mps 737 mmHg 96%
    07:00 +2°C° 0.1 mm 2 mps 737 mmHg 97%
    08:00 +2°C° 0.1 mm 2 mps 737 mmHg 97%
    09:00 +2°C° 0.2 mm 2 mps 738 mmHg 98%
    10:00 +2°C° 0.2 mm 2 mps 738 mmHg 98%
    11:00 +3°C° 0.2 mm 1 mps 738 mmHg 98%
    12:00 +3°C° 0.3 mm 1 mps 738 mmHg 98%
    13:00 +3°C° 0.3 mm 1 mps 738 mmHg 98%
    14:00 +3°C° 0.3 mm 1 mps 738 mmHg 98%
    15:00 +3°C° 0.4 mm 1 mps 738 mmHg 98%
    16:00 +3°C° 0.4 mm 1 mps 738 mmHg 98%
    17:00 +3°C° 0.4 mm 1 mps 738 mmHg 98%
    18:00 +3°C° 0.4 mm 1 mps 738 mmHg 98%
    19:00 +2°C° 0.4 mm 2 mps 738 mmHg 98%
    20:00 +1°C° 0.4 mm 2 mps 738 mmHg 98%
    21:00 +1°C° 0.2 mm 2 mps 738 mmHg 98%
    22:00 +1°C° 0.2 mm 2 mps 738 mmHg 98%
    23:00 +1°C° 0.2 mm 2 mps 738 mmHg 98%

    28 January, Tuesday

    Time Temperature Precipitation Wind Pressure Humidity
    00:00 +1°C° 0.1 mm 2 mps 737 mmHg 98%
    01:00 +2°C° 0.1 mm 1 mps 737 mmHg 98%
    02:00 +2°C° 0.1 mm 1 mps 737 mmHg 98%
    03:00 +2°C° 0.2 mm 1 mps 737 mmHg 98%
    04:00 +1°C° 0.2 mm 2 mps 737 mmHg 98%
    05:00 +1°C° 0.2 mm 2 mps 736 mmHg 98%
    06:00 +1°C° 0.2 mm 2 mps 736 mmHg 98%
    07:00 +1°C° 0.2 mm 2 mps 736 mmHg 98%
    08:00 +1°C° 0.2 mm 2 mps 736 mmHg 98%
    09:00 +1°C° 0.1 mm 2 mps 736 mmHg 98%
    10:00 +1°C° 0.1 mm 2 mps 736 mmHg 97%
    11:00 +1°C° 0.1 mm 2 mps 736 mmHg 97%
    12:00 +1°C° 0.1 mm 2 mps 736 mmHg 97%
    13:00 +1°C° 0.1 mm 2 mps 735 mmHg 97%
    14:00 +1°C° 0.1 mm 2 mps 735 mmHg 97%
    15:00 -1°C° 0.1 mm 2 mps 735 mmHg 97%
    16:00 -1°C° 0.1 mm 2 mps 735 mmHg 97%
    17:00 -1°C° 0.1 mm 2 mps 735 mmHg 97%
    18:00 -1°C° 0.1 mm 2 mps 735 mmHg 96%
    19:00 -2°C° 0.1 mm 2 mps 735 mmHg 96%
    20:00 -2°C° 0.1 mm 2 mps 735 mmHg 96%
    21:00 -2°C° 0 mm 2 mps 735 mmHg 96%
    22:00 -2°C° 0 mm 2 mps 735 mmHg 96%
    23:00 -2°C° 0 mm 2 mps 735 mmHg 96%

    29 January, Wednesday

    Time Temperature Precipitation Wind Pressure Humidity
    00:00 -2°C° 0.1 mm 2 mps 734 mmHg 96%
    01:00 -2°C° 0.1 mm 2 mps 734 mmHg 97%
    02:00 -1°C° 0.1 mm 2 mps 734 mmHg 97%
    03:00 -1°C° 0.1 mm 2 mps 734 mmHg 97%
    04:00 +1°C° 0.1 mm 2 mps 734 mmHg 97%
    05:00 +1°C° 0.1 mm 2 mps 734 mmHg 97%
    06:00 +1°C° 0.1 mm 2 mps 734 mmHg 97%
    07:00 +1°C° 0.1 mm 2 mps 734 mmHg 97%
    08:00 +1°C° 0.1 mm 2 mps 733 mmHg 97%
    09:00 0°C° 0 mm 3 mps 733 mmHg 97%
    10:00 0°C° 0 mm 3 mps 734 mmHg 96%
    11:00 0°C° 0 mm 3 mps 734 mmHg 95%
    12:00 0°C° 0 mm 3 mps 733 mmHg 93%
    13:00 0°C° 0 mm 3 mps 733 mmHg 91%
    14:00 0°C° 0 mm 3 mps 733 mmHg 89%
    15:00 0°C° 0 mm 3 mps 733 mmHg 90%
    16:00 0°C° 0 mm 3 mps 733 mmHg 90%
    17:00 0°C° 0 mm 3 mps 733 mmHg 91%
    18:00 0°C° 0 mm 3 mps 733 mmHg 92%
    19:00 0°C° 0 mm 3 mps 732 mmHg 93%
    20:00 0°C° 0 mm 3 mps 732 mmHg 94%
    21:00 -1°C° 0 mm 4 mps 732 mmHg 95%
    22:00 -1°C° 0 mm 4 mps 732 mmHg 95%
    23:00 -1°C° 0 mm 4 mps 732 mmHg 96%

    30 January, Thursday

    Time Temperature Precipitation Wind Pressure Humidity
    00:00 -1°C° 0 mm 4 mps 732 mmHg 96%
    01:00 -1°C° 0 mm 4 mps 732 mmHg 96%
    02:00 -1°C° 0 mm 4 mps 731 mmHg 96%
    03:00 -1°C° 0.1 mm 4 mps 731 mmHg 96%
    04:00 -2°C° 0.1 mm 4 mps 731 mmHg 96%
    05:00 -2°C° 0.1 mm 4 mps 730 mmHg 96%
    06:00 -2°C° 0.1 mm 4 mps 730 mmHg 96%
    07:00 -2°C° 0.1 mm 4 mps 730 mmHg 96%
    08:00 -2°C° 0.1 mm 4 mps 730 mmHg 96%
    09:00 -1°C° 0.1 mm 4 mps 730 mmHg 96%
    10:00 -1°C° 0.1 mm 4 mps 730 mmHg 96%
    11:00 -1°C° 0.1 mm 4 mps 730 mmHg 96%
    12:00 -1°C° 0.1 mm 4 mps 729 mmHg 96%
    13:00 -1°C° 0.1 mm 4 mps 729 mmHg 95%
    14:00 -1°C° 0.1 mm 4 mps 729 mmHg 95%
    15:00 -1°C° 0 mm 3 mps 729 mmHg 94%
    16:00 -1°C° 0 mm 3 mps 729 mmHg 92%
    17:00 -1°C° 0 mm 3 mps 729 mmHg 91%
    18:00 -1°C° 0.1 mm 3 mps 729 mmHg 92%
    19:00 -1°C° 0.1 mm 3 mps 729 mmHg 94%
    20:00 -2°C° 0.1 mm 3 mps 729 mmHg 95%
    21:00 -2°C° 0.1 mm 3 mps 730 mmHg 95%
    22:00 -2°C° 0.1 mm 3 mps 730 mmHg 94%
    23:00 -2°C° 0.1 mm 3 mps 730 mmHg 94%
    Show more